STARLINK-3889, 52331

Orbit data source: Space-Track

STARLINK-3889, 52331 is a payload satellite owned by SpaceX/Seattle (US) in LEO that was launched on Fri, 29 Apr 2022 UTC via an FALCON 9 launch vehicle from the Air Force Eastern Test Range (AFETR). Payload-class satellites include a variety of spacecraft equipped with specific instruments for various scientific and technological missions. These include communications satellites like Starlink; space stations such as the ISS; scientific satellites like the Hubble; Earth observation satellites from companies like Planet Labs, Umbra, and HawkEye 360; GPS; miniature CubeSats for education and research; and military/defense satellites.

Loading next visibility...
Identifier
52331, 2022-045A
Orbit
LEO
Country
Flag of USUS
Related business
Manufacturer
SpaceX/Seattle
Mission
Operational Commercial Communications
Bus & Motor
STARLINK, Unknown motor
Mass
297 kg wet, ~275 kg dry
Launch date (UTC)
2022-04-29 (4 years ago)
Launch vehicle
FALCON 9
Launch site
Air Force Eastern Test Range (AFETR)
Object type
Payload
Rocket body
Debris
Shape & HBR
Box + 1 Pan, 10.1 m
Radar Cross Section
11.087 m², Large (>1 m²)

Expand to show TLE details & history
Last TLE update: 10 hours ago

TLE from 10 hours ago
0 STARLINK-3889
1 52331U 22045A   25349.92008004  .00000552  00000-0  52750-4 0  9998
2 52331  53.2167 225.1777 0001499  90.7955 269.3209 15.08840343202998
Epoch: 2025-12-15T22:04Z
TLE epoch observation values (Epoch: 2025-12-15T22:04:54.915Z)
Latitude
-0.00001°
Longitude
169.13715°
Altitude
540.652 km
Speed
7.593 km/s
True Right ascension
15h 00m 42s
True Declination
0° 00' 00"
Sunlit
Object was in daylight at epoch
Visualization orbit readout
Latitude
Unknown
Longitude
Unknown
Altitude
Unknown
Speed
Unknown
Apparent Right ascension
Unknown
Apparent Declination
Unknown
Sunlit
N/A
Visualization observer readout
Local Sidereal Time
06:19:02
Azimuth
Unknown
Elevation
Unknown
Doppler factor
Unknown
Orbital elements
Apogee altitude
541.024 km
Perigee altitude
538.95 km
Semi-major axis
6,918.124 km
Eccentricity
0.00015
Inclination
53.2167°
RAAN
225.1777°
Arg. of periapsis
90.7955°
True anomaly
269.30372°
Mean anomaly
269.3209°
Eccentric anomaly
269.31231°
Mean motion
3.7719 °/min
Orbital period
95.44 mins
BSTAR
0.00005275
Loading maneuver chart data...
Computing Atmospheric mass density...
Loading historical data...
Loading historical data...
Loading historical data...
Loading historical data...
Loading historical data...
Loading historical data...
Loading historical data...

Documentation

Showing up to 5 results
|